Regional Weather Roundup
Issued by NWS

Home | Current Version | Previous Version | Text Only | Print | Product List | Glossary On
Versions: 1 2 3 4 5 6 7 8 9 10 11 12 13 14 15 16 17 18 19 20 21 22 23 24 25 26 27 28 29 30 31 32 33 34 35 36 37 38 39 40 41 42 43 44 45 46 47 48 49 50
000
ASUS43 KDMX 111508
RWRIA

WEATHER ROUNDUP FOR IOWA
NATIONAL WEATHER SERVICE DES MOINES IA
900 AM CST THU FEB 11 2016

NOTE: "FAIR" INDICATES FEW OR NO CLOUDS BELOW 12,000 FEET WITH NO
SIGNIFICANT WEATHER AND/OR OBSTRUCTIONS TO VISIBILITY.

* - THESE STATIONS ARE NOT NWS STATIONS...THUS NOT UNDER NWS
QUALITY CONTROL.  THEY ALSO DO NOT REPORT WEATHER SUCH
AS PRECIPITATION OR FOG.

IAZ001>003-012>014-020>022-031>034-043>046-111600-
   NORTHWEST IOWA

CITY           SKY/WX    TMP DP  RH WIND       PRES   REMARKS
CARROLL *      CLOUDY    10   3  72 SE5       30.31S WCI   2
CHEROKEE *     CLOUDY    14   7  73 SE7       30.29S WCI   4
DENISON *      CLOUDY    12   3  67 SE6       30.29R WCI   3
LE MARS *      CLOUDY    16   9  73 SE9       30.29F WCI   4
ORANGE CITY *  CLOUDY    14   9  79 CALM      30.26S
SHELDON *      CLOUDY    12   7  79 SE8       30.25S WCI   1
SIOUX CITY     CLOUDY    17  10  74 SE10      30.29F WCI   5
SPENCER        CLOUDY    10   0  63 SE7       30.28F WCI  -1
STORM LAKE *   CLOUDY    12   3  67 SE8       30.28S WCI   1
$$

IAZ055>058-069>071-079>083-090>094-111600-
   SOUTHWEST IOWA

CITY           SKY/WX    TMP DP  RH WIND       PRES   REMARKS
ATLANTIC *     CLOUDY    14   1  57 NE5       30.33R WCI   6
AUDUBON *      CLOUDY    10   1  67 E5        30.30S WCI   2
CLARINDA *     PTSUNNY   18   9  68 NE8       30.34S WCI   7
COUNCIL BLFS * CLOUDY    14   5  67 E8        30.30F WCI   3
CRESTON *      PTSUNNY   12   1  62 E8        30.32R WCI   1
HARLAN  *      CLOUDY    12   3  67 E7        30.35S WCI   2
LAMONI         CLOUDY    14   3  61 NE7       30.32R WCI   4
RED OAK *      CLOUDY    16   5  62 E7        30.33R WCI   6
SHENANDOAH *   PTSUNNY   18   9  68 NE6       30.34R WCI   9
$$

IAZ047>049-059>061-072>074-084-111600-
   CENTRAL IOWA

CITY           SKY/WX    TMP DP  RH WIND       PRES   REMARKS
AMES           CLOUDY     5  -1  76 CALM      30.35R
ANKENY *       SUNNY      7  -2  66 CALM      30.36R
BOONE *        SUNNY      3  -4  72 NE6       30.31S WCI  -8
CHARITON *     SUNNY      9   0  66 N3        30.34R
DES MOINES     MOSUNNY   11  -1  58 NE3       30.35R
GRINNELL*      CLOUDY     9   0  66 NE6       30.34R WCI  -1
KNOXVILLE *    SUNNY      9  -2  61 NE5       30.33R WCI   0
MARSHALLTOWN   CLOUDY     5  -3  69 N3        30.33R
NEWTON *       SUNNY      7  -2  66 NE6       30.34R WCI  -3
PELLA *        MOSUNNY    9   0  66 CALM      30.36R
$$

IAZ004>006-015-016-023>025-035-036-111600-
   NORTH CENTRAL IOWA

CITY           SKY/WX    TMP DP  RH WIND       PRES   REMARKS
ALGONA *       SUNNY      1  -2  85 S3        30.30R
CLARION *      SUNNY      1  -6  71 E5        30.31F WCI  -8
ESTHERVILLE    CLOUDY     1  -1  91 S3        30.28R
FORT DODGE *   CLOUDY     3   0  85 CALM      30.33S
MASON CITY     CLOUDY    -2  -5  87 CALM      30.31F
FOREST CITY *  SUNNY      0  -4  85 CALM      30.29F
WEBSTER CITY * SUNNY      0  -6  78 SW6       30.31S WCI -12
IOWA FALLS *     N/A     -2  -8  78 CALM      30.32S
$$

IAZ007>011-017>019-026>030-037>042-050>054-066-111600-
   NORTHEAST IOWA

CITY           SKY/WX    TMP DP  RH WIND       PRES   REMARKS
CEDAR RAPIDS   SUNNY     11   4  73 NE3       30.33R
CHARLES CITY * SUNNY      0  -8  71 CALM      30.32S
CLINTON *      SUNNY     12   4  70 N7        30.35S WCI   1
DECORAH *      SUNNY      3  -6  66 CALM      30.30R
DUBUQUE        SUNNY      8  -1  66 N5        30.31R WCI   0
MONTICELLO *   SUNNY     10   0  61 CALM      30.34S
OELWEIN *      SUNNY      1  -6  71 CALM      30.32S
WATERLOO       CLOUDY     3  -4  72 NW3       30.35R
$$

IAZ064-065-067-068-078-111600-
   EAST CENTRAL IOWA

CITY           SKY/WX    TMP DP  RH WIND       PRES   REMARKS
DAVENPORT      SUNNY     12   2  64 NE6       30.35R WCI   3
IOWA CITY      SUNNY     13   1  59 CALM      30.38R
MT. PLEASANT * SUNNY     16   7  67 NE5       30.35S WCI   9
MUSCATINE *    SUNNY     14   3  62 CALM      30.38S
QUAD CITIES    SUNNY     14   1  56 NE5       30.36R WCI   6
$$

IAZ062-063-075>077-085>089-095>099-111600-
   SOUTHEAST IOWA

CITY           SKY/WX    TMP DP  RH WIND       PRES   REMARKS
BURLINGTON     SUNNY     14   6  70 NE8       30.34S WCI   3
FAIRFIELD *    SUNNY     10   1  67 NE6       30.34S WCI   1
FORT MADISON * SUNNY     12   5  73 CALM      30.35R
KEOKUK *       SUNNY     16   5  62 NE6       30.35R WCI   7
OSKALOOSA *      N/A     10   3  72 NE5       30.35R WCI   2
CENTERVILLE *  SUNNY     10   1  67 CALM      30.34R
OTTUMWA        CLOUDY    11   3  70 NE7       30.34R WCI   0
WASHINGTON *   SUNNY     12   3  67 NE8       30.36S WCI   1
$$

ABBREVIATIONS USED IN REMARKS
   TC - TEMPERATURES IN CELSIUS
  WCI - WIND CHILL INDEX
   HX - HEAT INDEX
  VSB - VISIBILITY
$$




USA.gov is the U.S. government's official web portal to all federal, state and local government web resources and services.